User: anonymous   Login
Location: Clanezzo
(45.7500°N, 9.6000°E)
Time: 20:05:02
(UTC+00:00)
Language:

ITAMSAT 1 - Orbit

View from above orbital plane
View from above orbital plane
View from above satellite
View from above satellite

Ground track
Ground track

The orbit data is extracted from the following two-line orbital elements,

1 22826U 93061D   22177.56053420  .00000061  00000-0  40999-4 0  9995
2 22826  98.8803 208.6693 0009270  18.9696 341.1829 14.30523192499717
Epoch (UTC): 26 June 2022 13:27:10
Eccentricity: 0.0009270
inclination: 98.8803°
perigee height: 783 km
apogee height: 796 km
right ascension of ascending node: 208.6693°
argument of perigee: 18.9696°
revolutions per day: 14.30523192
mean anomaly at epoch: 341.1829°
orbit number at epoch: 49971

The dashed part of the orbit path shows where the satellite is in the earth's shadow,  

DLR